Weather History for Dallas/Ft Worth, TX

Change the Weather History Date:

Saturday, February 22, 2014

  Actual Average Record
Temperature  
Mean Temperature 61 °F 52 °F  
Max Temperature 75 °F 62 °F 93 °F (1996)
Min Temperature 47 °F 41 °F 19 °F (1963)
Degree Days  
Heating Degree Days 4 14  
Month to date heating degree days 409 351  
Since 1 July heating degree days 2084 1856  
Cooling Degree Days 0 0  
Month to date cooling degree days 0 0  
Year to date cooling degree days 0 2  
Growing Degree Days 10 (Base 50)    
Moisture  
Dew Point 41 °F    
Average Humidity 49    
Maximum Humidity 63    
Minimum Humidity 35    
Precipitation  
Precipitation 0.00 in 0.10 in 2.01 in (2000)
Month to date precipitation 0.38 2.03  
Year to date precipitation 0.71 4.16  
Snow  
Snow 0.00 in 0.00 in 2.70 in (1966)
Month to date snowfall 0.7 0.4  
Since 1 July snowfall 2.8 1.0  
Snow Depth 0.00 in    
Sea Level Pressure  
Sea Level Pressure 29.89 in    
Wind  
Wind Speed 15 mph (South)    
Max Wind Speed 25 mph    
Max Gust Speed 30 mph    
Visibility 10 miles    
Events      
T = Trace of Precipitation, MM = Missing Value Source: NWS Daily Summary

Daily Weather History Graph

Daily Weather History Graph

Search for Another Location

Airport:

Trip Planner

Search our weather history database for the weather conditions in past years. The results will help you decide how hot, cold, wet, or windy it might be!

Date:

Astronomy

Feb. 22, 2014 Rise Set
Actual Time 7:03 AM CST 6:19 PM CST
Civil Twilight 6:39 AM CST 6:44 PM CST
Nautical Twilight 6:10 AM CST 7:13 PM CST
Astronomical Twilight 5:41 AM CST 7:41 PM CST
Moon 12:53 AM CST (2/22) 11:39 AM CST (2/22)
Length of Visible Light 12h 05m
Length of Day
11h 15m
Waning Gibbous, 50% of the Moon is Illuminated
Feb 22
Waning Gibbous
Mar 1
New
Mar 8
First Quarter
Mar 16
Full
Mar 23
Last Quarter

Hourly Weather History & Observations

Time (CST) Temp. Dew Point Humidity Pressure Visibility Wind Dir Wind Speed Gust Speed Precip Events Conditions
12:53 AM 55.9 °F 30.0 °F 37% 29.99 in 10.0 mi South 11.5 mph - N/A   Mostly Cloudy
1:53 AM 55.9 °F 30.9 °F 39% 29.98 in 10.0 mi South 13.8 mph - N/A   Mostly Cloudy
2:53 AM 55.0 °F 30.0 °F 38% 29.96 in 10.0 mi South 19.6 mph - N/A   Overcast
3:53 AM 53.1 °F 28.9 °F 40% 29.96 in 10.0 mi South 16.1 mph - N/A   Overcast
4:53 AM 51.1 °F 30.0 °F 44% 29.97 in 10.0 mi South 15.0 mph - N/A   Mostly Cloudy
5:53 AM 50.0 °F 28.9 °F 44% 29.97 in 10.0 mi South 13.8 mph - N/A   Mostly Cloudy
6:53 AM 48.0 °F 28.9 °F 48% 29.98 in 10.0 mi South 11.5 mph - N/A   Mostly Cloudy
7:53 AM 50.0 °F 30.0 °F 46% 29.97 in 10.0 mi South 11.5 mph - N/A   Mostly Cloudy
8:53 AM 55.9 °F 36.0 °F 47% 29.97 in 10.0 mi South 18.4 mph - N/A   Mostly Cloudy
9:53 AM 60.1 °F 41.0 °F 49% 29.97 in 10.0 mi South 16.1 mph - N/A   Mostly Cloudy
10:53 AM 64.0 °F 43.0 °F 46% 29.96 in 10.0 mi South 17.3 mph - N/A   Scattered Clouds
11:53 AM 68.0 °F 44.1 °F 42% 29.92 in 10.0 mi South 21.9 mph - N/A   Scattered Clouds
12:53 PM 71.1 °F 46.0 °F 41% 29.87 in 10.0 mi South 19.6 mph - N/A   Partly Cloudy
1:53 PM 73.0 °F 46.0 °F 38% 29.83 in 10.0 mi SSW 17.3 mph - N/A   Partly Cloudy
2:53 PM 73.9 °F 46.9 °F 38% 29.81 in 10.0 mi South 18.4 mph - N/A   Scattered Clouds
3:53 PM 75.0 °F 46.0 °F 36% 29.79 in 10.0 mi SW 23.0 mph 27.6 mph N/A   Scattered Clouds
4:53 PM 73.0 °F 45.0 °F 37% 29.79 in 10.0 mi South 20.7 mph 26.5 mph N/A   Scattered Clouds
5:53 PM 71.1 °F 45.0 °F 39% 29.79 in 10.0 mi South 15.0 mph - N/A   Mostly Cloudy
6:53 PM 69.1 °F 45.0 °F 42% 29.81 in 10.0 mi South 10.4 mph - N/A   Mostly Cloudy
7:53 PM 66.9 °F 46.0 °F 47% 29.83 in 10.0 mi SSE 9.2 mph - N/A   Mostly Cloudy
8:53 PM 64.9 °F 48.0 °F 54% 29.84 in 10.0 mi South 10.4 mph - N/A   Mostly Cloudy
9:53 PM 64.9 °F 50.0 °F 58% 29.85 in 10.0 mi South 13.8 mph - N/A   Mostly Cloudy
10:53 PM 64.0 °F 51.1 °F 63% 29.85 in 10.0 mi South 12.7 mph - N/A   Mostly Cloudy
11:53 PM 62.1 °F 52.0 °F 70% 29.85 in 10.0 mi South 11.5 mph - N/A   Mostly Cloudy